CAPE
0 0 1 0 0 0 40 186 188 127 161 177 56 68 225 293 302 319 254 196 129 89 32 20 6 6 0 0 0 11 68 77 84 93 79 26 5 25 167 193 381 505 398 385
0 0 0 0 0 0 0 179 107 123 139 122 69 109 71 63 204 208 127 152 144 74 0 0 0 0 0 0 0 14 70 100 64 86 15 30 40 111 105 118 294 350 512 418
4 0 0 0 0 0 0 38 13 21 97 32 67 46 143 268 108 97 92 2 0 0 0 0 0 0 0 0 0 33 85 116 98 57 12 123 349 252 309 361 288 440 658 566
0 0 0 0 0 0 0 0 20 197 54 4 0 0 16 241 414 233 140 112 8 0 0 0 0 0 0 0 5 15 72 98 168 38 64 188 330 597 257 172 436 502 834 1217
0 0 0 0 0 0 4 125 231 57 0 0 0 0 0 77 312 198 6 23 37 93 0 0 0 0 7 17 27 26 18 62 222 70 62 95 158 198 144 206 551 625 968 1158
0 0 0 0 0 0 0 0 0 0 0 4 0 0 0 12 69 247 212 80 72 94 98 0 0 0 78 16 0 68 57 100 97 65 41 58 134 219 309 511 493 533 911 1079
0 0 0 0 0 0 0 0 0 4 14 0 0 0 0 0 2 14 48 431 346 178 123 1 0 0 41 35 1 93 56 118 105 56 43 176 245 307 430 408 1004 817 918 968
0 0 0 0 0 0 4 0 0 0 0 0 0 16 4 0 0 0 10 58 148 221 116 23 0 0 1 26 40 125 12 71 103 64 123 196 472 672 625 521 519 1121 1033 1130
0 0 0 0 0 0 0 0 0 0 0 2 0 0 0 0 0 4 5 49 54 157 161 47 6 0 0 0 33 140 114 46 71 132 110 97 313 530 850 767 590 1195 1290 1437
0 0 0 0 0 0 0 0 0 0 12 25 0 0 0 4 7 41 246 344 108 83 89 28 33 0 0 13 19 51 229 168 107 105 146 196 147 377 582 1080 1267 945 1319 1463
0 0 0 0 0 0 0 0 0 0 0 0 0 47 0 116 133 284 238 137 305 139 8 0 28 0 0 0 19 63 124 358 156 198 244 356 389 388 522 773 1159 1303 971 1233
0 0 0 0 0 0 0 0 0 0 0 0 1 175 257 490 293 223 208 261 357 168 48 557 1015 84 0 0 14 36 65 200 402 466 490 615 656 725 782 766 836 959 1078 962
0 0 0 0 0 0 0 0 0 0 0 13 167 65 295 148 112 206 334 313 197 910 1075 663 435 101 0 13 35 56 113 149 320 346 681 894 1191 1198 1112 1097 1107 1062 1063 996
0 0 0 0 0 0 0 0 0 0 12 15 82 386 581 347 266 142 279 1137 1099 868 533 240 223 167 112 39 41 92 201 371 566 503 799 825 901 1205 1578 1616 1501 1314 1196 1312
0 0 0 0 0 0 0 77 0 0 0 155 87 334 364 298 266 854 1421 1260 682 574 266 111 67 68 69 103 210 385 635 764 927 1158 1197 1262 1479 1506 1450 1562 1618 1671 1507 1486
0 0 0 0 0 0 0 2 161 26 0 1 13 312 0 39 1585 1949 1325 303 321 685 289 95 64 26 49 111 184 390 564 863 1082 1217 842 553 325 58 43 263 681 1338 1755 1824
0 0 0 0 0 0 0 6 12 252 1 2 403 104 1 782 1864 1476 723 128 4 131 403 247 67 53 122 167 180 213 183 225 242 241 197 414 122 22 29 53 67 251 825 1201
0 0 0 0 0 0 0 7 0 147 253 469 510 11 192 1158 1591 1166 604 119 1 15 61 141 105 44 41 73 69 12 22 87 264 199 212 88 0 0 0 21 0 11 177 629
0 0 0 0 0 0 11 76 500 238 381 399 657 582 1021 1390 1250 1180 660 207 1 32 12 0 0 0 0 0 0 0 0 0 38 204 20 3 89 86 48 54 0 0 0 68
0 0 0 0 0 0 0 0 2 441 662 362 699 949 1304 1050 557 722 963 506 133 0 0 10 0 0 0 0 0 0 0 0 0 0 0 0 62 177 117 0 0 0 0 0
0 0 0 0 0 0 0 10 0 347 234 224 707 969 1021 988 279 447 816 677 241 47 0 0 0 1 0 0 0 0 0 0 0 0 0 0 0 0 0 3 0 0 0 0
0 0 0 0 0 0 0 33 2 1 0 205 503 844 788 653 598 651 738 801 547 341 121 0 0 0 0 0 0 0 0 0 0 0 0 71 173 6 107 5 0 0 0 0
0 0 0 1 0 0 0 0 0 0 15 37 162 114 453 342 487 461 441 555 480 306 140 35 0 0 0 0 0 0 0 0 0 44 84 12 3 63 467 321 198 330 210 18
0 0 0 2 0 0 0 0 0 0 0 0 0 0 0 0 0 8 0 0 3 3 71 1 4 5 0 0 0 0 0 0 0 5 20 96 301 16 54 112 192 280 315 271
0 0 0 0 0 0 0 0 0 0 0 0 0 0 0 0 0 0 0 0 0 0 1 6 68 145 143 0 0 0 0 40 424 329 247 22 0 43 45 3 1 1 1 8
0 0 0 0 0 0 0 0 0 0 0 0 0 0 0 0 0 0 0 0 74 269 136 168 202 208 260 190 374 91 149 342 560 49 18 0 1 0 0 1 12 0 1 1
CIN
0 0 -275 0 0 0 -250 -207 -167 -237 -271 -214 -259 -229 -159 -151 -146 -169 -219 -260 -267 -232 -232 -266 -367 -310 0 0 -2 -480 -341 -298 -336 -334 -297 -314 -389 -264 -182 -247 -229 -220 -217 -188
0 0 0 0 0 0 0 -251 -246 -220 -303 -272 -294 -251 -237 -220 -161 -158 -210 -270 -270 -299 0 0 0 0 0 0 0 -449 -328 -340 -369 -325 -408 -341 -288 -204 -202 -277 -235 -256 -197 -191
-241 -64 0 0 0 0 0 -303 -340 -181 -302 -367 -298 -276 -241 -183 -217 -238 -224 -110 0 0 0 0 0 0 0 0 0 -465 -379 -391 -396 -405 -447 -286 -215 -220 -168 -175 -176 -240 -200 -182
-18 0 0 0 0 0 0 0 -319 -279 -217 -30 0 0 -351 -288 -256 -268 -259 -257 -211 0 0 0 0 0 0 0 -435 -452 -448 -434 -390 -479 -391 -237 -165 -80 -172 -235 -231 -223 -190 -137
0 0 0 0 0 0 -227 -355 -285 -305 0 0 -318 0 -1 -433 -261 -272 -406 -350 -392 -383 0 0 0 0 -474 -406 -472 -493 -525 -473 -373 -482 -432 -326 -232 -215 -264 -251 -190 -222 -180 -147
0 0 0 0 0 0 0 0 0 0 0 -37 0 0 0 -363 -298 -258 -301 -364 -391 -424 -341 0 0 0 -444 -423 0 -536 -513 -464 -456 -500 -484 -363 -279 -217 -203 -188 -200 -231 -192 -163
0 0 0 0 0 0 0 0 0 -129 -241 0 0 0 0 0 -333 -437 -255 -221 -265 -346 -314 -179 0 0 -441 -445 -271 -499 -517 -413 -429 -465 -428 -378 -326 -270 -201 -227 -181 -194 -197 -195
0 0 0 0 0 0 -25 0 0 0 0 0 0 -282 -195 0 0 0 -393 -312 -306 -352 -415 -455 0 0 -55 -448 -481 -440 -558 -456 -429 -460 -435 -421 -343 -280 -259 -238 -274 -189 -210 -201
0 0 0 0 0 0 0 0 0 -27 0 -30 0 0 0 0 0 -562 -475 -303 -363 -325 -438 -466 -187 0 0 0 -610 -527 -533 -546 -487 -434 -461 -495 -395 -325 -274 -218 -286 -181 -192 -182
0 0 0 0 0 0 0 0 0 0 -131 -166 0 0 0 -424 -487 -473 -402 -292 -368 -435 -456 -529 -536 0 0 -477 -462 -553 -403 -477 -404 -446 -469 -423 -447 -429 -354 -233 -202 -243 -189 -188
0 0 0 0 0 0 0 0 0 0 0 0 0 -163 0 -418 -430 -442 -426 -469 -468 -505 -371 0 -716 0 0 0 -534 -544 -428 -429 -489 -501 -483 -479 -450 -431 -382 -306 -231 -189 -224 -215
0 0 0 0 0 0 0 0 0 0 0 0 -11 -123 -480 -422 -565 -561 -542 -445 -435 -544 -636 -506 -409 -583 0 0 -530 -572 -512 -449 -456 -444 -448 -456 -425 -399 -353 -342 -310 -277 -243 -266
0 0 0 0 0 0 0 0 0 0 0 -369 -110 -112 -657 -600 -602 -553 -498 -515 -594 -365 -386 -548 -612 -690 0 -626 -515 -584 -589 -519 -431 -486 -436 -405 -356 -330 -307 -298 -291 -285 -265 -264
0 0 0 0 0 0 0 0 0 0 -65 -266 -326 -217 -285 -361 -315 -468 -437 -290 -307 -369 -490 -640 -668 -710 -785 -390 -603 -552 -576 -517 -448 -465 -404 -376 -371 -316 -257 -236 -237 -243 -239 -213
0 0 0 0 0 0 0 -215 0 0 0 -52 -138 -258 -306 -345 -376 -345 -273 -291 -445 -490 -600 -696 -731 -727 -743 -747 -675 -611 -540 -438 -449 -415 -365 -324 -246 -219 -210 -156 -127 -131 -207 -241
0 0 0 0 0 0 0 -43 -403 -490 -39 -6 -552 -229 0 -763 -297 -219 -280 -468 -532 -448 -548 -663 -698 -726 -667 -612 -612 -533 -518 -443 -431 -402 -410 -464 -543 -610 -561 -477 -337 -175 -120 -129
0 0 0 0 0 0 -27 -193 -184 -342 -32 -80 -121 -259 -177 -406 -221 -258 -337 -441 -489 -488 -421 -472 -608 -650 -568 -517 -512 -510 -559 -546 -551 -534 -580 -501 -620 -717 -720 -668 -628 -373 -168 -127
0 0 0 0 0 0 0 -253 0 -319 -195 -369 -290 -390 -421 -310 -274 -284 -380 -442 -199 -437 -415 -439 -484 -563 -627 -596 -621 -714 -405 -580 -391 -386 -421 -353 0 0 0 -747 -22 -521 -261 -133
0 0 0 0 0 0 -119 -237 -202 -185 -170 -359 -283 -396 -340 -309 -288 -240 -344 -455 -351 -453 -449 0 0 0 0 0 0 0 0 0 -438 -312 -246 -52 -484 -471 -500 -498 -8 0 0 -349
0 0 0 0 0 0 0 0 -35 -255 -56 -314 -289 -309 -293 -267 -150 -211 -269 -311 -412 0 0 -483 0 0 0 0 0 0 0 0 0 0 0 0 -409 -362 -348 0 0 0 0 0
0 0 0 0 0 0 0 -230 0 -48 -66 -307 -286 -293 -280 -139 -217 -262 -240 -207 -276 -398 0 0 0 -270 0 0 0 0 0 0 0 0 0 0 0 0 0 -92 0 0 0 0
0 0 0 0 0 0 0 -125 -18 -17 -19 -368 -314 -270 -247 -167 -203 -190 -176 -136 -141 -134 -249 0 0 0 0 0 0 0 0 0 0 0 0 -236 -336 -275 -295 -105 0 0 0 0
0 0 0 -11 0 0 0 0 0 0 -433 -385 -284 -387 -222 -193 -162 -164 -124 -127 -118 -137 -183 -272 0 0 0 0 0 0 0 0 0 -345 -320 -30 -39 -300 -160 -182 -208 -146 -152 -83
0 0 0 -5 0 0 0 0 0 0 0 0 0 0 0 0 0 -243 0 0 -153 -252 -188 -206 -228 -49 0 0 0 0 0 0 0 -50 -343 -296 -215 -244 -295 -247 -222 -176 -146 -136
0 0 0 0 0 0 0 0 0 0 0 0 0 0 0 0 0 0 0 0 0 0 -153 -418 -284 -207 -237 0 0 0 0 -400 -240 -231 -245 -244 0 -381 -373 -79 0 0 0 -120
0 0 0 0 0 0 0 0 0 0 0 0 0 0 0 0 0 0 0 0 -197 -217 -275 -212 -207 -236 -220 -289 -252 -345 -393 -326 -235 -314 -247 0 -278 0 0 -83 -282 0 0 0
Wind_Speed
4 3 7 11 8 2 12 7 8 3 4 3 3 2 6 8 7 9 9 7 7 11 11 9 13 11 12 11 10 11 9 7 4 2 2 1 2 2 3 3 4 4 3 3
3 6 11 1 6 7 7 9 6 3 5 4 4 4 4 6 10 8 8 11 14 10 7 8 10 11 13 13 13 11 11 8 6 4 2 3 3 3 2 1 2 5 4 3
6 7 4 5 4 6 4 9 6 4 5 5 3 4 4 3 3 6 7 7 8 13 12 9 9 12 11 12 13 13 13 9 6 6 3 1 0 1 1 2 3 3 5 4
5 4 4 1 5 7 3 8 8 12 5 2 2 4 5 4 6 8 9 7 8 10 7 6 7 9 12 13 10 10 9 8 7 7 4 5 4 3 1 2 2 1 4 4
8 2 4 3 5 6 2 12 8 6 5 4 1 2 6 3 7 9 9 9 7 6 8 10 11 12 13 10 10 9 8 8 8 7 6 5 4 3 2 2 2 2 3 4
8 3 4 7 2 6 12 14 9 5 3 3 3 1 5 5 6 5 6 11 9 8 6 6 8 8 7 6 7 7 8 8 7 8 8 8 8 6 3 2 3 2 2 2
5 6 3 3 7 5 4 8 4 5 4 6 3 1 11 6 9 11 5 5 4 4 4 3 10 11 9 10 9 9 9 8 7 7 7 8 8 7 7 5 4 4 3 3
2 6 3 3 6 10 6 9 7 3 5 4 3 5 7 7 7 7 4 4 4 6 6 7 8 10 12 11 10 11 10 8 9 9 10 7 7 4 4 5 4 3 4 4
3 6 3 2 3 6 5 3 4 10 4 3 3 7 9 4 9 11 8 8 3 3 7 8 7 11 12 14 14 15 11 11 9 11 8 7 6 6 6 6 4 3 3 4
3 3 2 5 2 7 3 7 5 4 5 1 4 5 6 4 4 7 6 6 3 3 5 7 6 8 10 13 11 10 12 15 14 9 8 8 8 7 6 5 6 6 5 5
5 3 8 2 4 4 1 2 8 7 4 6 2 7 7 6 4 6 5 5 4 6 6 6 6 6 8 9 11 12 11 11 11 10 9 8 8 7 6 7 7 6 4 5
2 5 2 2 5 1 3 3 5 7 4 1 4 7 4 6 6 3 6 5 7 6 6 6 7 6 6 8 9 12 13 13 14 11 9 10 8 8 8 8 8 5 6 5
5 3 4 9 8 4 6 3 4 6 4 4 5 7 3 8 7 5 2 4 5 4 7 6 5 4 6 8 10 11 10 11 6 5 7 7 6 6 7 6 5 5 6 7
8 3 6 7 6 2 3 3 5 3 5 6 7 3 1 4 4 6 3 2 3 3 2 3 3 3 6 3 6 5 5 7 8 8 7 6 6 4 4 3 5 5 5 7
5 3 0 2 5 3 3 4 2 3 4 6 6 8 2 4 4 3 2 3 3 4 4 3 3 4 3 4 5 4 4 5 7 8 8 6 6 5 2 2 4 5 7 9
5 1 1 3 7 5 2 6 6 3 5 4 5 1 4 6 5 4 3 5 6 6 7 5 3 4 3 1 3 2 4 6 6 6 6 6 9 8 5 5 1 4 8 9
4 3 3 4 5 5 6 5 3 1 2 6 6 5 4 4 6 3 2 4 6 3 1 2 5 4 4 4 3 5 5 5 6 5 6 8 8 8 9 6 5 6 8 7
4 4 3 2 5 1 8 6 4 3 2 1 4 4 8 6 4 3 1 3 5 4 3 2 2 2 2 2 4 4 4 4 1 0 4 2 4 6 7 9 6 3 4 6
2 6 4 3 2 5 5 4 1 1 2 2 5 6 7 6 5 2 5 4 5 3 2 1 2 1 3 2 3 3 3 3 3 0 2 1 3 4 4 4 4 1 1 6
6 6 5 2 2 4 6 3 2 1 3 5 6 8 11 6 3 4 5 3 3 5 3 2 1 2 3 3 2 3 5 4 3 1 3 4 4 5 4 3 3 3 3 4
3 4 5 2 2 6 6 4 1 7 9 5 8 7 8 5 5 3 7 5 5 5 5 3 4 4 4 3 1 4 5 6 5 4 4 3 3 3 3 3 1 3 3 3
3 5 2 2 3 3 1 3 4 7 1 3 5 7 6 4 4 4 6 4 3 5 3 5 5 4 6 3 2 2 4 5 3 3 4 4 4 3 2 3 3 3 3 3
2 5 4 6 6 5 5 4 1 3 4 3 6 4 7 6 5 5 5 6 5 5 6 4 3 5 5 4 4 4 4 2 2 2 4 5 5 4 4 4 4 3 3 3
3 3 3 3 3 4 4 1 0 1 4 4 5 6 7 6 6 5 4 3 3 3 1 3 4 2 1 4 5 6 2 4 4 5 5 4 3 3 2 2 3 3 3 3
5 3 4 2 4 3 3 3 2 2 5 4 3 4 6 5 4 5 5 5 4 3 1 0 1 3 2 3 5 5 5 5 4 3 4 3 1 3 2 1 2 2 2 2
5 7 5 6 5 4 7 4 6 7 6 6 6 3 3 4 7 5 6 5 4 4 1 2 3 3 5 2 3 5 5 5 4 4 3 1 0 1 1 2 2 1 3 7
Wind_Direction
209 109 224 214 202 215 174 196 213 158 170 99 132 108 177 182 213 190 185 191 215 213 220 205 194 197 190 189 185 189 184 196 150 157 186 239 239 231 260 225 212 207 223 245
29 241 251 347 199 206 199 182 209 79 135 92 104 106 141 166 215 218 227 209 197 227 200 216 204 187 187 187 196 189 199 181 182 175 167 157 196 213 241 288 211 215 219 197
171 237 242 196 242 171 207 194 182 163 125 51 80 349 174 176 186 207 219 208 215 208 209 214 206 193 183 190 194 193 193 180 179 174 130 109 280 78 22 260 255 212 196 195
228 265 247 281 238 154 250 207 169 137 99 150 61 275 252 184 223 209 216 203 190 199 209 192 168 167 185 203 193 194 178 175 184 167 160 176 191 178 244 237 242 203 197 210
247 207 245 277 221 155 348 99 114 103 90 116 252 95 260 150 229 215 215 217 218 216 188 177 181 186 193 180 187 183 170 178 187 174 180 182 205 205 171 260 287 208 189 214
243 270 253 215 99 146 146 76 44 61 86 4 289 87 282 202 202 200 200 212 208 204 229 187 177 162 201 182 169 162 171 197 187 176 188 193 208 203 193 224 243 204 209 222
314 242 263 159 79 18 84 70 27 31 13 224 34 78 245 259 239 222 164 249 253 203 183 190 173 181 182 185 178 167 168 196 194 195 194 197 209 208 209 215 222 193 211 205
144 330 205 192 179 175 185 146 150 191 182 254 62 241 260 235 276 302 120 129 138 180 204 202 202 191 192 185 186 181 173 180 190 198 214 200 211 209 212 213 211 228 214 203
149 284 286 169 173 128 185 142 174 104 358 55 276 294 306 272 307 300 293 69 314 218 188 217 207 199 197 194 191 182 174 189 207 207 204 198 206 211 215 223 212 238 235 217
206 334 262 283 101 44 133 147 73 17 132 262 282 284 249 63 313 333 355 47 140 256 264 258 213 216 202 202 202 185 189 193 199 209 205 207 204 208 208 216 222 219 228 221
140 122 291 36 30 176 77 71 54 108 102 153 189 267 212 179 94 10 54 81 18 345 326 305 276 235 222 201 196 192 192 190 197 192 207 192 200 195 201 214 225 225 224 222
189 141 257 279 298 279 146 99 128 119 214 97 138 271 153 132 135 138 304 321 323 318 299 293 272 248 221 206 193 196 191 195 196 199 197 206 201 189 200 213 224 211 233 238
188 20 38 353 347 11 59 62 101 111 101 193 134 257 80 126 150 177 200 283 305 332 330 309 319 249 230 206 196 198 196 206 202 181 196 196 191 188 217 224 206 196 212 232
89 92 141 180 213 232 315 131 193 96 111 167 227 273 21 57 20 29 12 31 18 350 314 324 27 359 348 306 206 188 165 162 164 172 179 185 182 203 207 212 213 207 217 235
92 93 37 263 275 230 292 12 162 167 169 139 228 198 123 156 84 29 12 49 57 20 52 43 51 61 39 38 29 68 109 154 170 168 163 161 151 158 138 348 309 269 229 232
354 126 64 352 355 8 101 53 70 52 123 84 103 357 152 93 98 82 22 47 45 36 14 13 44 65 37 142 163 187 161 169 166 135 121 135 123 119 121 119 35 296 267 260
56 101 60 288 352 3 5 356 301 199 174 155 153 220 112 97 113 151 105 67 75 53 81 11 15 28 56 64 44 42 29 16 31 110 150 164 161 172 153 162 69 359 325 285
119 87 60 235 20 69 242 327 202 107 80 89 61 107 136 147 134 136 161 136 111 112 125 160 241 296 311 330 351 352 347 354 118 35 40 352 49 11 357 31 80 84 269 269
100 114 75 115 163 293 323 338 91 230 241 13 131 127 108 106 82 36 188 200 175 159 209 172 141 257 328 2 11 8 35 57 88 177 122 192 35 16 6 16 344 29 302 289
69 73 111 104 121 186 243 295 12 124 312 177 150 151 141 137 109 250 203 189 193 223 212 241 296 323 326 357 48 34 359 338 12 335 252 212 210 206 200 219 247 204 189 232
41 19 124 133 177 285 256 298 335 85 237 166 144 146 146 150 190 192 145 180 184 213 198 194 217 243 272 297 25 9 340 318 308 319 321 341 328 306 275 277 229 240 240 249
144 118 162 88 77 268 346 11 148 215 32 142 119 149 146 130 119 153 153 177 208 256 241 181 214 240 265 268 194 247 287 286 294 283 290 300 292 276 278 257 278 270 244 274
63 170 185 166 214 242 263 251 317 158 127 106 118 143 144 133 176 154 169 205 229 258 277 290 185 171 247 243 194 245 262 247 288 315 285 272 271 267 266 265 268 250 254 275
335 149 119 70 284 313 359 32 25 115 106 128 127 144 158 180 166 176 173 171 199 224 259 356 15 31 119 203 204 221 220 194 210 231 241 263 273 309 257 214 212 216 223 225
207 132 154 277 272 298 294 255 212 133 123 112 111 171 194 154 173 173 173 168 157 155 123 53 0 340 349 206 240 239 227 204 204 213 225 235 353 5 360 301 306 283 247 235
188 181 152 214 217 166 240 230 172 167 185 171 150 129 126 165 155 130 138 146 146 145 129 23 333 299 292 296 246 234 217 188 182 226 249 7 142 258 266 300 290 359 353 349